TimeMDT,TemperatureF,Dew PointF,Humidity,Sea Level PressureIn,VisibilityMPH,Wind Direction,Wind SpeedMPH,Gust SpeedMPH,PrecipitationIn,Events,Conditions,WindDirDegrees,DateUTC
12:53 AM,55.9,30.0,37,29.86,10.0,ESE,5.8,-,N/A,,Overcast,120,2013-05-16 06:53:00
1:53 AM,50.0,32.0,50,29.86,10.0,South,3.5,-,N/A,,Scattered Clouds,170,2013-05-16 07:53:00
2:53 AM,54.0,36.0,51,29.83,10.0,South,13.8,-,N/A,,Clear,190,2013-05-16 08:53:00
3:53 AM,50.0,37.9,63,29.84,10.0,South,11.5,-,N/A,,Clear,190,2013-05-16 09:53:00
4:53 AM,45.0,37.0,74,29.85,10.0,SSW,6.9,-,N/A,,Clear,200,2013-05-16 10:53:00
5:53 AM,42.1,36.0,79,29.84,10.0,SW,9.2,-,N/A,,Clear,230,2013-05-16 11:53:00
6:53 AM,45.0,39.0,80,29.85,10.0,West,4.6,-,N/A,,Clear,260,2013-05-16 12:53:00
7:53 AM,50.0,32.0,50,29.86,10.0,NNW,3.5,-,N/A,,Clear,340,2013-05-16 13:53:00
8:53 AM,55.0,36.0,49,29.85,10.0,Calm,Calm,-,N/A,,Clear,0,2013-05-16 14:53:00
9:53 AM,59.0,34.0,39,29.85,10.0,Variable,3.5,-,N/A,,Clear,0,2013-05-16 15:53:00
10:53 AM,62.1,36.0,38,29.82,10.0,Variable,5.8,-,N/A,,Clear,0,2013-05-16 16:53:00
11:53 AM,63.0,32.0,31,29.82,10.0,West,8.1,-,N/A,,Mostly Cloudy,270,2013-05-16 17:53:00
12:53 PM,63.0,32.0,31,29.81,10.0,South,6.9,-,N/A,,Overcast,190,2013-05-16 18:53:00
1:53 PM,64.9,33.1,31,29.81,10.0,NW,10.4,-,N/A,,Overcast,310,2013-05-16 19:53:00
2:53 PM,66.0,32.0,28,29.78,10.0,Variable,3.5,-,N/A,,Mostly Cloudy,0,2013-05-16 20:53:00
3:53 PM,64.9,30.9,28,29.78,10.0,WNW,8.1,-,N/A,,Mostly Cloudy,300,2013-05-16 21:53:00
4:53 PM,66.0,32.0,28,29.80,10.0,NNW,10.4,20.7,N/A,,Scattered Clouds,330,2013-05-16 22:53:00
5:53 PM,64.0,33.1,31,29.81,10.0,NW,8.1,-,N/A,,Partly Cloudy,320,2013-05-16 23:53:00
6:53 PM,62.1,33.1,34,29.81,10.0,North,11.5,-,N/A,,Overcast,350,2013-05-17 00:53:00
7:53 PM,60.1,35.1,39,29.82,10.0,NNW,10.4,-,N/A,,Clear,340,2013-05-17 01:53:00
8:53 PM,57.0,35.1,44,29.83,10.0,NNW,6.9,-,N/A,,Mostly Cloudy,340,2013-05-17 02:53:00
9:53 PM,55.0,35.1,47,29.84,10.0,North,4.6,-,N/A,,Overcast,10,2013-05-17 03:53:00
10:53 PM,55.0,35.1,47,29.84,10.0,NE,5.8,-,N/A,,Mostly Cloudy,40,2013-05-17 04:53:00
11:53 PM,54.0,42.1,64,29.84,10.0,NE,4.6,-,0.00,,Overcast,40,2013-05-17 05:53:00